Location: Creston
(40.9870°N, 81.8938°W)
Time: 08:30:57
(UTC+00:00)

Cosmos 968 Rocket - Pass Details

Date: 29 October 2020
Orbit: 741 x 770 km, 74.0° (Epoch: 28 November)

Event Time Altitude Azimuth Distance (km) Brightness Sun altitude
Rises 23:17:42 0° 345° (NNW) 3,234 6.8 -10.2°
Reaches altitude 10° 23:20:09 10° 350° (N) 2,300 6.0 -10.7°
Maximum altitude 23:25:14 53° 67° (ENE) 926 3.6 -11.6°
Drops below altitude 10° 23:30:16 10° 144° (SE) 2,265 5.7 -12.6°
Sets 23:32:39 0° 149° (SSE) 3,181 6.5 -13.0°
